Temp
78 79 78 78 78 78 77 77 77 76 76 76 76 75 75 74 73 73 72 72 71 71 70 70 70 69 69 70 70 71 70 68 68 69 68 67 67 65 64 64 64 66
77 77 78 79 78 78 78 78 77 77 76 76 76 77 76 75 73 73 72 71 71 70 70 70 70 70 70 70 69 70 70 68 67 68 66 66 67 65 64 63 64 65
77 77 77 77 77 77 77 77 77 77 77 77 76 76 75 75 73 73 72 72 71 71 70 70 70 70 70 69 69 69 68 68 67 68 67 66 67 66 65 66 65 63
76 76 76 76 77 77 77 76 76 76 76 76 76 76 75 74 74 72 72 71 71 70 70 70 69 70 70 69 69 70 68 69 68 67 67 67 66 66 65 65 64 65
75 76 77 77 77 77 77 76 75 76 76 76 76 75 75 74 73 73 72 71 71 71 70 69 70 69 69 69 69 68 68 68 67 67 67 66 66 65 64 64 63 63
76 78 78 78 77 76 76 76 76 76 76 75 75 75 75 74 74 73 72 71 71 71 70 70 70 69 70 69 69 68 68 68 67 67 67 65 66 66 65 64 63 63
75 75 76 77 77 76 75 76 76 76 77 76 77 75 76 74 74 74 74 72 72 71 71 70 69 69 69 69 69 68 68 67 67 67 66 67 65 63 64 63 64 64
74 75 75 76 75 76 75 76 76 76 76 77 75 75 76 75 75 74 74 73 72 72 71 71 70 70 69 69 68 67 66 66 66 67 66 65 64 64 64 63 62 63
75 75 75 74 74 74 74 76 76 76 77 75 76 76 76 76 76 74 74 74 73 72 72 71 70 69 69 68 68 67 66 65 65 66 65 64 63 63 65 64 63 62
73 74 74 74 73 74 74 75 76 76 76 76 76 76 76 75 76 75 74 73 72 72 71 70 70 69 68 68 68 67 67 66 66 65 65 64 64 64 64 64 63 62
70 70 70 71 72 72 73 74 74 75 75 75 75 75 76 75 75 75 74 73 71 71 71 70 69 69 68 68 67 67 67 66 65 65 64 64 63 63 60 63 62 62
67 69 70 71 71 70 69 71 72 74 75 74 74 74 75 75 74 74 73 74 73 72 71 71 70 69 69 68 68 67 66 65 65 64 64 64 63 63 63 63 62 62
69 70 71 71 72 72 72 73 73 72 73 74 75 74 74 73 74 74 73 74 73 72 71 70 70 69 68 67 67 67 66 65 64 63 63 63 63 63 63 63 62 63
68 68 69 70 71 71 72 73 73 73 74 74 75 74 73 73 73 72 72 73 72 72 71 70 69 68 68 68 68 67 65 64 64 63 63 62 61 62 62 62 62 62
66 67 68 70 70 70 70 71 72 73 73 74 73 73 72 74 74 72 71 71 71 71 71 70 68 67 68 67 66 66 65 64 64 63 62 62 61 62 61 61 62 62
68 68 69 70 70 70 70 70 70 71 71 72 73 74 73 73 74 70 69 68 67 69 69 66 65 67 59 54 57 65 65 64 62 62 62 62 61 61 60 61 61 61
67 68 69 69 70 70 70 69 69 68 68 69 70 71 71 69 67 65 61 61 66 67 66 65 65 61 46 46 47 52 62 63 62 61 62 61 61 60 60 60 61 62
67 67 68 68 69 70 70 70 70 69 68 68 68 68 66 65 65 66 66 65 64 65 64 63 61 47 43 44 45 47 52 62 62 61 60 61 61 60 61 61 60 60
68 68 68 68 68 69 69 69 69 68 67 66 65 65 66 65 65 65 65 66 64 61 58 57 54 43 42 42 43 44 45 53 63 62 61 61 61 60 60 60 60 59
67 68 67 68 68 68 68 67 67 67 67 67 66 65 64 65 65 64 64 63 61 60 58 56 52 43 42 42 42 41 41 46 63 61 60 61 60 60 59 59 59 58
67 67 66 66 67 67 67 67 66 65 65 66 66 65 64 63 63 62 62 61 61 61 60 58 55 41 41 41 41 41 40 43 61 59 59 60 60 60 59 59 59 58
65 65 65 65 66 66 66 66 65 64 64 65 64 65 66 65 62 61 59 60 59 58 57 55 53 40 41 41 40 40 39 55 60 59 59 59 59 59 59 59 60 59
64 64 63 64 65 65 66 65 65 64 64 65 64 64 64 63 60 60 61 60 58 57 56 55 52 43 40 40 40 38 44 59 59 60 60 59 59 59 60 60 59 60
64 64 64 63 64 64 65 65 65 65 64 64 64 64 63 62 61 60 61 59 56 55 54 56 55 46 39 40 40 39 47 58 60 60 59 59 59 60 60 60 59 51
64 63 63 63 63 64 65 65 65 65 65 64 64 64 64 65 60 60 58 56 57 57 52 55 56 49 39 40 39 39 46 57 59 60 58 58 59 59 59 60 60 55
64 63 63 63 63 64 65 65 65 65 65 65 64 64 64 64 60 56 54 56 55 55 53 56 55 53 46 38 40 39 39 53 59 59 57 57 58 58 57 58 59 59
MSLP
1015.39 1015.43 1015.67 1015.83 1016.07 1016.23 1016.51 1016.83 1016.99 1017.35 1017.59 1017.71 1017.91 1018.15 1018.35 1018.55 1018.91 1019.11 1019.31 1019.55 1019.79 1019.99 1020.15 1020.31 1020.39 1020.47 1020.47 1020.47 1020.47 1020.35 1020.51 1020.75 1020.75 1020.83 1020.99 1021.07 1021.19 1021.27 1021.31 1021.35 1021.35 1021.19
1015.31 1015.43 1015.43 1015.55 1015.75 1015.95 1016.19 1016.47 1016.75 1017.03 1017.31 1017.51 1017.59 1017.79 1018.03 1018.35 1018.79 1018.95 1019.27 1019.55 1019.75 1019.95 1020.11 1020.31 1020.43 1020.51 1020.51 1020.51 1020.63 1020.59 1020.67 1020.87 1020.99 1021.03 1021.19 1021.27 1021.31 1021.43 1021.63 1021.63 1021.55 1021.51
1015.23 1015.39 1015.55 1015.59 1015.63 1015.79 1016.03 1016.23 1016.47 1016.71 1016.91 1017.11 1017.31 1017.55 1017.87 1018.19 1018.59 1018.79 1019.07 1019.31 1019.55 1019.83 1020.07 1020.19 1020.35 1020.47 1020.55 1020.59 1020.67 1020.67 1020.75 1020.91 1020.99 1021.03 1021.11 1021.35 1021.39 1021.43 1021.63 1021.63 1021.67 1021.79
1015.07 1015.11 1015.19 1015.35 1015.43 1015.59 1015.71 1015.99 1016.27 1016.47 1016.63 1016.91 1017.15 1017.31 1017.63 1018.03 1018.35 1018.71 1018.99 1019.23 1019.43 1019.71 1019.95 1020.11 1020.27 1020.35 1020.43 1020.55 1020.59 1020.63 1020.83 1020.87 1020.99 1021.11 1021.19 1021.27 1021.39 1021.51 1021.63 1021.63 1021.71 1021.67
1014.79 1014.91 1014.99 1015.11 1015.23 1015.35 1015.47 1015.71 1016.03 1016.19 1016.47 1016.67 1016.83 1017.11 1017.43 1017.87 1018.23 1018.51 1018.79 1019.07 1019.27 1019.55 1019.79 1020.03 1020.15 1020.31 1020.39 1020.43 1020.43 1020.63 1020.79 1020.91 1021.07 1021.03 1021.11 1021.31 1021.47 1021.63 1021.71 1021.67 1021.79 1021.79
1014.51 1014.59 1014.71 1014.91 1015.07 1015.31 1015.47 1015.55 1015.63 1015.83 1016.15 1016.51 1016.71 1016.83 1017.11 1017.51 1017.91 1018.23 1018.55 1018.83 1019.03 1019.23 1019.55 1019.75 1019.99 1020.15 1020.23 1020.35 1020.39 1020.47 1020.55 1020.67 1020.95 1021.03 1021.11 1021.23 1021.35 1021.43 1021.55 1021.67 1021.71 1021.67
1014.75 1014.71 1014.75 1014.71 1014.87 1015.03 1015.31 1015.43 1015.47 1015.55 1015.75 1016.07 1016.39 1016.71 1016.87 1017.23 1017.55 1017.87 1018.15 1018.47 1018.71 1018.95 1019.19 1019.43 1019.67 1019.91 1020.03 1020.19 1020.27 1020.43 1020.51 1020.67 1020.79 1020.79 1020.91 1020.99 1021.19 1021.47 1021.51 1021.59 1021.51 1021.51
1014.63 1014.63 1014.67 1014.67 1014.83 1014.91 1015.11 1015.19 1015.35 1015.47 1015.55 1015.75 1016.11 1016.39 1016.55 1016.87 1017.11 1017.47 1017.75 1018.03 1018.31 1018.55 1018.83 1019.03 1019.31 1019.55 1019.79 1019.91 1020.11 1020.39 1020.55 1020.67 1020.71 1020.71 1020.79 1020.95 1021.11 1021.11 1021.27 1021.43 1021.51 1021.39
1014.35 1014.47 1014.59 1014.87 1014.91 1014.87 1014.95 1014.99 1015.11 1015.23 1015.35 1015.63 1015.79 1016.03 1016.23 1016.47 1016.71 1017.07 1017.43 1017.71 1018.03 1018.23 1018.47 1018.79 1019.03 1019.35 1019.59 1019.71 1019.95 1020.15 1020.27 1020.47 1020.55 1020.63 1020.79 1020.91 1020.99 1021.07 1020.95 1021.11 1021.23 1021.23
1014.43 1014.43 1014.63 1014.79 1014.91 1014.91 1014.91 1014.91 1014.95 1015.07 1015.15 1015.39 1015.51 1015.67 1015.99 1016.15 1016.27 1016.63 1016.99 1017.39 1017.75 1018.03 1018.27 1018.51 1018.75 1019.11 1019.35 1019.51 1019.71 1019.87 1020.03 1020.19 1020.39 1020.55 1020.63 1020.75 1020.83 1020.87 1020.87 1020.99 1021.03 1021.07
1014.59 1014.71 1014.91 1014.99 1015.11 1015.23 1015.19 1015.15 1015.15 1015.15 1015.15 1015.23 1015.39 1015.51 1015.59 1015.79 1015.99 1016.19 1016.51 1016.87 1017.31 1017.63 1017.99 1018.23 1018.47 1018.75 1018.99 1019.23 1019.47 1019.63 1019.75 1019.99 1020.15 1020.27 1020.51 1020.59 1020.75 1020.87 1021.15 1021.03 1020.99 1020.99
1014.75 1014.75 1014.83 1014.91 1015.03 1015.31 1015.47 1015.39 1015.27 1015.07 1014.95 1015.03 1015.07 1015.19 1015.23 1015.39 1015.59 1015.75 1015.99 1016.35 1016.79 1017.19 1017.55 1017.91 1018.11 1018.39 1018.67 1018.95 1019.19 1019.47 1019.63 1019.83 1019.95 1020.19 1020.31 1020.43 1020.59 1020.71 1020.75 1020.91 1021.07 1020.95
1014.23 1014.47 1014.59 1014.79 1014.83 1014.79 1014.79 1014.87 1014.87 1014.91 1014.83 1014.75 1014.71 1014.87 1015.07 1015.15 1015.27 1015.43 1015.59 1015.87 1016.39 1016.83 1017.27 1017.59 1017.87 1018.11 1018.39 1018.71 1018.95 1019.19 1019.39 1019.59 1019.83 1020.03 1020.23 1020.39 1020.47 1020.47 1020.63 1020.79 1020.91 1020.91
1014.75 1014.95 1014.99 1014.87 1014.75 1014.59 1014.47 1014.39 1014.47 1014.59 1014.63 1014.63 1014.55 1014.71 1014.87 1014.99 1015.11 1015.59 1015.71 1015.71 1015.91 1016.35 1016.83 1017.23 1017.55 1017.83 1018.07 1018.39 1018.55 1018.83 1019.03 1019.31 1019.51 1019.79 1019.91 1020.23 1020.39 1020.39 1020.51 1020.67 1020.79 1020.87
1015.15 1015.07 1014.95 1014.83 1014.79 1014.75 1014.67 1014.51 1014.27 1014.27 1014.35 1014.43 1014.51 1014.51 1014.51 1014.55 1014.71 1015.19 1015.51 1015.51 1015.51 1015.83 1016.31 1016.87 1017.31 1017.59 1017.75 1017.95 1018.23 1018.63 1018.91 1019.15 1019.39 1019.59 1019.83 1019.99 1020.15 1020.27 1020.47 1020.59 1020.59 1020.63
1015.03 1014.95 1014.79 1014.67 1014.59 1014.51 1014.47 1014.47 1014.43 1014.31 1014.23 1014.19 1014.19 1014.19 1014.35 1014.35 1014.47 1015.11 1015.23 1015.75 1016.03 1016.03 1016.27 1016.71 1017.07 1017.31 1017.67 1017.95 1018.15 1018.35 1018.67 1018.95 1019.39 1019.63 1019.75 1019.83 1019.95 1020.07 1020.35 1020.47 1020.51 1020.59
1015.03 1014.83 1014.67 1014.51 1014.39 1014.35 1014.31 1014.35 1014.39 1014.43 1014.43 1014.35 1014.19 1014.15 1014.23 1014.75 1015.23 1015.35 1015.75 1016.31 1016.51 1016.15 1016.19 1016.51 1016.83 1017.39 1018.07 1018.43 1018.67 1018.75 1018.71 1018.95 1019.19 1019.51 1019.75 1019.83 1019.91 1020.03 1020.03 1020.19 1020.31 1020.35
1014.71 1014.63 1014.51 1014.35 1014.27 1014.23 1014.19 1014.15 1014.15 1014.23 1014.35 1014.43 1014.43 1014.55 1014.99 1015.19 1015.07 1015.07 1015.15 1015.47 1015.95 1016.31 1016.51 1016.83 1017.35 1018.15 1018.47 1018.91 1019.11 1019.19 1019.07 1018.91 1019.11 1019.39 1019.71 1019.67 1019.75 1019.79 1019.83 1019.91 1020.07 1020.23
1014.39 1014.39 1014.31 1014.23 1014.15 1014.07 1014.07 1014.11 1014.15 1014.11 1014.19 1014.35 1014.63 1014.87 1014.95 1014.95 1014.87 1014.99 1015.07 1015.19 1015.67 1016.39 1016.91 1017.35 1018.47 1018.95 1019.07 1019.39 1019.55 1019.43 1019.43 1019.23 1018.99 1019.27 1019.39 1019.51 1019.55 1019.67 1019.75 1019.87 1019.91 1019.99
1014.43 1014.35 1014.27 1014.19 1014.07 1013.95 1013.91 1013.95 1013.99 1014.03 1013.99 1014.03 1014.23 1014.43 1014.71 1014.75 1014.75 1014.91 1015.15 1015.47 1015.91 1016.35 1016.91 1017.35 1018.27 1018.75 1018.91 1019.27 1019.51 1019.55 1019.63 1019.59 1019.03 1019.31 1019.35 1019.39 1019.51 1019.63 1019.75 1019.87 1019.95 1019.95
1014.35 1014.31 1014.27 1014.15 1013.95 1013.75 1013.67 1013.67 1013.71 1013.75 1013.87 1013.83 1013.87 1014.07 1014.31 1014.55 1014.71 1015.03 1015.39 1015.71 1015.99 1016.31 1016.63 1017.03 1017.95 1018.75 1019.11 1019.39 1019.55 1019.71 1019.87 1019.83 1019.15 1019.39 1019.43 1019.47 1019.51 1019.55 1019.63 1019.71 1019.79 1019.83
1014.27 1014.23 1014.15 1013.95 1013.75 1013.51 1013.43 1013.39 1013.43 1013.55 1013.67 1013.83 1013.99 1014.03 1014.03 1014.15 1014.63 1015.03 1015.43 1015.71 1016.15 1016.59 1017.03 1017.47 1018.27 1019.07 1019.39 1019.47 1019.63 1019.87 1020.11 1019.67 1019.07 1019.27 1019.39 1019.35 1019.27 1019.35 1019.47 1019.43 1019.43 1019.47
1014.07 1014.03 1013.95 1013.83 1013.59 1013.39 1013.23 1013.23 1013.31 1013.35 1013.51 1013.59 1013.83 1013.95 1014.07 1014.27 1014.63 1015.07 1015.47 1015.95 1016.51 1016.91 1017.27 1017.87 1018.71 1019.47 1019.55 1019.59 1019.79 1020.03 1019.95 1019.03 1018.87 1018.95 1018.99 1019.07 1019.07 1019.11 1019.15 1019.11 1019.15 1019.19
1013.87 1013.79 1013.71 1013.55 1013.35 1013.19 1013.03 1013.03 1013.11 1013.15 1013.23 1013.39 1013.51 1013.71 1013.83 1014.11 1014.55 1014.91 1015.39 1015.99 1016.47 1017.03 1017.47 1017.59 1018.15 1019.07 1019.39 1019.59 1019.83 1019.95 1019.51 1018.87 1018.63 1018.59 1018.67 1018.75 1018.71 1018.83 1018.79 1018.79 1018.79 1019.15
1013.71 1013.67 1013.55 1013.39 1013.19 1012.95 1012.83 1012.83 1012.91 1012.95 1012.99 1013.19 1013.31 1013.35 1013.47 1013.79 1014.51 1014.95 1015.63 1016.11 1016.43 1016.79 1017.19 1017.27 1017.59 1018.39 1019.07 1019.43 1019.79 1019.79 1019.71 1019.15 1018.71 1018.47 1018.47 1018.47 1018.47 1018.47 1018.47 1018.39 1018.39 1018.51
1013.51 1013.47 1013.39 1013.27 1013.07 1012.83 1012.67 1012.67 1012.75 1012.91 1012.91 1012.91 1013.07 1013.03 1013.23 1013.75 1014.71 1015.27 1015.91 1016.39 1016.83 1017.23 1017.51 1017.11 1017.39 1018.11 1018.83 1019.51 1019.83 1020.03 1020.07 1019.47 1018.71 1018.51 1018.47 1018.43 1018.43 1018.31 1018.27 1018.19 1018.19 1018.15
Wind_Speed
9 8 9 8 8 6 6 6 5 6 5 5 4 5 5 6 7 6 6 5 6 6 6 6 6 5 5 4 4 4 5 4 4 4 4 4 4 4 4 4 3 3
10 8 8 8 8 7 6 6 6 7 7 6 5 4 5 6 7 7 7 7 7 6 6 6 5 5 4 4 4 3 4 3 4 3 3 3 3 3 3 3 2 3
8 8 8 9 8 9 8 7 7 7 7 8 7 6 6 7 8 8 8 8 7 7 7 6 6 5 5 5 4 3 4 4 3 3 3 3 3 2 2 1 2 2
11 10 10 10 9 9 9 8 7 7 7 8 8 7 8 7 8 9 8 8 8 8 7 7 6 6 5 5 5 4 4 4 3 3 3 3 2 2 2 2 2 2
11 11 10 9 9 8 8 9 9 8 8 8 9 9 9 9 9 10 9 9 8 8 8 7 7 6 6 5 4 5 5 5 4 3 3 3 2 2 1 1 1 1
10 11 10 10 8 8 8 9 10 10 9 9 9 9 10 11 10 11 11 10 9 9 9 8 8 6 5 5 4 4 4 4 4 4 4 4 3 2 1 0 1 1
9 8 10 9 10 9 9 9 9 9 9 9 9 9 10 11 11 12 12 11 11 10 10 9 9 8 6 5 4 5 4 4 5 5 5 4 3 4 3 2 0 1
11 10 9 9 10 10 10 9 9 9 9 9 10 10 11 12 13 11 11 12 12 12 11 10 10 9 8 6 6 6 6 4 4 5 4 4 3 2 3 2 2 1
10 11 11 11 11 10 11 11 9 9 9 10 10 10 11 12 12 13 13 13 12 12 12 11 10 9 8 8 7 8 7 6 5 5 4 4 4 2 1 1 1 1
7 8 9 10 11 11 11 10 9 9 9 10 10 9 11 11 13 14 14 13 13 12 12 12 11 10 9 9 9 8 8 8 7 6 5 4 3 3 2 2 1 2
6 6 8 10 11 9 9 8 8 8 8 9 9 10 11 12 12 14 14 15 13 14 13 13 12 12 11 10 9 8 8 8 7 6 6 5 4 3 3 3 2 2
5 6 8 10 10 9 11 12 11 12 11 10 11 12 13 13 14 13 14 15 15 15 14 13 13 12 12 11 10 9 8 7 7 6 6 5 4 3 3 3 3 3
6 7 8 9 10 10 10 10 10 11 12 12 11 12 13 13 13 14 14 15 15 14 14 14 13 13 12 11 10 10 9 9 8 7 6 5 4 4 4 3 3 3
5 5 7 8 9 9 10 11 12 12 13 12 11 12 13 13 14 13 12 14 15 15 14 13 13 13 12 12 11 10 9 9 8 6 6 5 5 4 4 4 4 3
4 4 5 6 7 8 9 11 12 12 12 12 11 11 11 12 13 14 14 15 15 15 15 13 12 12 11 11 10 10 8 8 7 6 5 5 5 4 4 4 4 3
4 4 5 6 7 7 8 9 10 11 11 12 13 12 11 12 12 12 12 10 12 13 13 12 11 9 8 12 9 8 8 6 6 5 5 5 4 4 4 3 3 3
5 5 5 6 6 7 7 8 9 9 10 11 11 12 11 8 12 11 9 8 11 13 14 12 10 7 13 11 9 6 6 6 6 5 5 4 4 4 3 3 4 4
5 6 6 6 6 7 7 7 7 8 9 8 8 9 9 10 11 14 15 14 12 11 9 7 6 12 13 12 10 7 4 5 5 5 5 5 4 4 3 3 4 4
7 7 7 7 7 7 6 6 6 7 8 8 8 9 12 12 12 13 13 13 11 10 9 9 9 11 11 12 10 8 4 3 5 5 5 5 4 4 4 4 5 5
7 7 7 7 8 7 6 6 6 7 7 7 7 9 11 11 12 13 12 11 10 10 9 9 9 12 14 12 11 9 8 7 3 5 4 3 4 4 4 5 6 6
7 7 7 8 8 8 7 6 6 6 7 7 7 9 10 10 10 11 10 10 11 10 9 9 8 13 12 12 11 10 10 7 4 4 4 4 5 5 6 6 7 7
7 8 8 8 8 8 7 7 6 6 7 7 7 8 9 9 8 8 9 10 9 9 9 9 9 14 12 12 12 10 10 6 4 4 4 5 5 6 6 7 7 7
8 8 8 8 8 8 8 7 7 7 7 7 8 9 9 9 9 8 9 9 9 8 9 8 9 12 12 12 11 11 9 5 3 4 5 5 6 6 7 7 8 8
9 9 9 8 8 8 8 7 7 7 8 8 10 10 10 9 9 9 9 9 11 10 7 7 9 11 11 10 10 11 8 4 4 5 5 5 6 7 7 7 8 4
9 9 9 9 9 9 8 8 8 9 8 9 10 10 10 10 9 10 9 9 9 10 8 8 7 10 11 10 9 10 7 5 5 5 6 6 6 7 7 8 8 7
8 9 9 9 9 9 9 8 7 8 10 10 10 10 9 10 9 10 11 9 8 7 5 6 8 6 9 8 7 6 6 6 5 6 6 7 7 8 8 8 9 9
Wind_Direction
208 203 193 191 198 200 194 197 192 178 186 186 186 184 174 168 158 164 145 136 127 123 118 113 112 107 102 96 83 78 83 75 74 75 80 70 67 58 58 50 35 1
214 212 206 197 198 198 197 196 196 194 186 187 189 181 172 163 165 165 156 147 144 136 132 127 123 122 118 104 102 97 91 91 87 86 90 84 98 96 66 48 28 357
212 211 214 211 203 192 190 188 193 196 197 190 183 182 171 167 171 167 165 160 152 147 144 139 135 131 125 123 126 111 100 100 94 88 79 70 46 47 73 34 48 350
208 211 213 212 211 198 188 186 188 193 194 186 184 180 171 169 173 170 168 165 159 156 152 150 148 145 144 139 142 125 125 119 104 111 116 99 83 69 44 36 20 345
208 212 216 218 215 209 196 191 187 193 194 195 185 176 174 169 174 174 173 172 169 163 160 158 158 152 155 155 148 134 141 127 134 141 119 113 94 74 58 24 29 326
216 218 219 222 219 212 208 204 195 190 192 195 189 181 178 174 179 178 177 177 175 170 166 165 162 162 164 151 158 142 149 137 134 151 142 141 137 134 122 135 241 263
227 226 223 222 221 216 218 215 212 201 192 190 190 191 181 178 182 182 181 180 178 175 174 170 166 166 165 165 161 148 136 137 151 153 157 142 145 160 159 179 304 295
224 232 230 227 224 220 221 223 215 210 201 190 189 190 187 184 186 183 184 183 181 180 177 174 173 168 169 171 165 156 153 156 160 161 154 142 159 153 147 171 196 270
235 233 231 231 230 227 224 224 221 212 203 196 192 189 191 191 190 184 186 186 184 183 178 176 175 169 172 175 167 169 167 164 165 165 164 162 174 169 204 130 220 237
270 265 261 254 241 237 237 228 223 217 209 209 205 195 191 193 192 186 185 186 185 183 179 175 173 170 174 177 175 174 173 168 169 169 171 174 178 194 201 235 256 256
278 286 288 283 279 277 267 252 243 234 221 211 212 209 199 192 191 189 186 186 185 183 179 178 176 175 175 175 172 176 173 168 174 168 170 174 177 193 207 240 239 241
281 273 265 259 254 245 245 244 243 236 225 217 218 217 205 196 191 189 187 187 183 182 181 180 179 178 176 174 173 172 170 171 170 170 173 178 176 205 210 210 227 242
344 318 290 277 267 259 255 252 244 238 236 226 219 217 209 200 196 194 188 184 180 180 181 181 180 178 176 175 173 173 173 170 169 171 174 172 184 187 187 197 221 227
351 313 298 291 287 279 268 259 254 250 246 241 228 221 217 211 205 199 193 185 179 178 179 180 178 178 175 174 176 174 172 169 166 171 174 169 172 180 173 190 197 212
325 313 305 288 279 278 276 271 263 254 251 247 236 224 223 222 212 189 188 188 178 176 175 174 177 176 178 177 172 170 168 167 165 168 170 169 174 170 174 186 201 199
312 297 287 289 281 276 272 270 271 268 260 251 246 239 227 222 210 178 172 169 177 177 172 171 172 181 148 155 160 165 165 157 156 165 176 172 179 172 185 206 218 243
308 305 296 286 286 280 271 264 261 262 260 256 250 243 231 170 156 142 136 174 198 186 174 173 169 130 119 114 107 123 150 150 159 161 169 180 182 194 216 218 233 238
304 301 297 294 284 277 271 266 260 253 251 256 254 229 190 182 176 181 187 184 186 185 171 150 120 115 121 122 130 139 152 155 162 168 177 187 193 202 219 233 251 263
307 301 301 293 284 280 272 262 258 254 246 236 232 229 229 214 192 192 187 180 165 152 133 114 110 130 128 140 149 147 153 217 173 176 189 191 201 211 241 260 268 266
300 299 294 293 287 278 265 256 245 252 249 236 228 227 227 225 206 188 180 168 154 145 128 131 136 151 150 154 156 157 171 224 181 176 209 216 214 228 234 248 248 258
309 305 297 290 286 280 268 256 247 243 248 247 233 221 218 214 198 179 168 159 158 158 158 143 137 150 156 161 160 168 179 223 189 179 214 225 231 237 248 253 260 261
315 307 298 290 284 278 264 255 244 234 234 237 236 228 214 204 187 173 163 157 141 139 135 132 136 157 168 168 164 170 177 212 197 204 226 237 240 244 249 257 258 261
316 307 300 290 280 271 260 250 244 235 231 229 227 223 211 189 167 161 157 149 137 125 113 115 146 174 174 169 167 166 183 212 213 232 239 237 248 256 261 262 261 260
311 306 298 291 279 268 260 245 238 238 232 226 227 223 215 188 163 153 151 137 128 122 135 143 148 167 175 172 171 175 208 230 246 253 260 267 268 267 270 270 270 242
305 301 296 287 279 269 259 248 238 236 236 226 225 224 215 197 167 152 133 130 135 140 131 132 141 159 174 174 181 180 210 246 264 271 275 277 281 280 277 281 280 246
292 291 285 278 273 270 258 249 246 240 236 229 224 221 210 191 164 130 131 130 130 127 150 143 131 144 171 170 155 165 234 282 291 289 286 287 286 287 293 287 286 283